DateTimeUTC,F1_A11,F1_S11,BsB_S11,BsG_S11,BsR_S11,BbsB_S11,BbsG_S11,BbsR_S11,BaB_A11,BaG_A11,BaR_A11,Tu_S11,T_S11,Uu_S11,U_S11,P_S11,T1_A11
2021-07-18T23:00:00Z,00000200,20000000,,,,,,,-000.13,-000.02,-000.12,18.7,25.2,14.6,09.8,0674.0,31.0
2021-07-18T23:01:00Z,00000200,20000000,,,,,,,-000.17,-000.08,-000.22,18.7,25.2,14.6,09.8,0674.0,31.1
2021-07-18T23:02:00Z,00000200,20000000,,,,,,,-000.09,0000.01,-000.15,18.7,25.2,14.6,09.8,0674.0,31.1
2021-07-18T23:03:00Z,00000200,60000000,,,,,,,0003.11,0002.85,0002.10,18.7,25.2,14.6,09.8,0674.0,31.1
2021-07-18T23:04:00Z,00000200,40000000,0017.65,0012.31,0007.00,0002.00,0001.56,0001.66,0003.95,0003.45,0002.65,18.8,25.1,14.7,10.0,0675.0,31.1
2021-07-18T23:05:00Z,00000200,00000000,0019.49,0012.74,0006.75,0002.15,0001.42,0001.27,0003.86,0003.47,0002.63,18.8,25.0,14.7,10.0,0675.0,31.1
2021-07-18T23:06:00Z,00000200,00000000,0019.88,0013.62,0007.57,0002.13,0001.74,0001.36,0004.31,0003.58,0002.79,18.8,25.0,14.7,10.0,0675.0,31.1
2021-07-18T23:07:00Z,00000200,00000000,0019.38,0013.38,0007.25,0002.01,0001.81,0001.09,0004.15,0004.00,0002.83,18.8,25.0,14.7,10.1,0675.1,31.1
2021-07-18T23:08:00Z,00000200,00000000,0019.33,0013.40,0007.77,0002.41,0001.72,0001.67,0004.10,0003.44,0002.53,18.8,25.0,14.8,10.1,0675.1,31.1
2021-07-18T23:09:00Z,00000200,00000000,0020.43,0013.73,0007.91,0002.10,0001.86,0001.47,0004.23,0003.94,0002.78,18.8,25.0,14.7,10.1,0675.1,31.1
2021-07-18T23:10:00Z,00000200,00000000,0021.03,0014.22,0008.01,0002.33,0001.61,0001.13,0004.00,0003.83,0003.03,18.8,25.0,14.8,10.1,0675.1,31.1
2021-07-18T23:11:00Z,00000200,00000000,0020.81,0014.27,0007.61,0002.24,0001.82,0001.31,0004.26,0004.15,0002.47,18.8,25.0,14.8,10.1,0675.0,31.1
2021-07-18T23:12:00Z,00000200,00000000,0020.17,0014.08,0007.75,0001.58,0001.79,0001.65,0004.28,0003.34,0003.27,18.8,25.0,14.8,10.1,0675.0,31.1
2021-07-18T23:13:00Z,00000200,00000000,0021.38,0014.26,0008.22,0001.99,0001.91,0001.54,0004.37,0003.79,0002.63,18.8,25.0,14.8,10.1,0675.0,31.1
2021-07-18T23:14:00Z,00000200,00000000,0021.32,0013.92,0007.81,0002.19,0002.00,0001.25,0004.14,0003.75,0002.84,18.8,25.0,14.8,10.2,0675.1,31.0
2021-07-18T23:15:00Z,00000200,00000000,0020.91,0014.78,0008.08,0002.03,0001.90,0001.37,0004.20,0003.96,0002.71,18.8,25.0,14.8,10.2,0675.1,31.1
2021-07-18T23:16:00Z,00000200,00000000,0020.29,0014.16,0008.66,0002.49,0002.01,0001.78,0004.30,0003.90,0003.17,18.8,25.0,14.8,10.2,0675.0,31.0
2021-07-18T23:17:00Z,00000200,00000000,0021.56,0014.29,0008.24,0002.52,0002.18,0001.44,0004.16,0003.83,0002.71,18.8,25.0,14.8,10.2,0675.1,31.0
2021-07-18T23:18:00Z,00000200,00000000,0021.29,0014.46,0008.24,0002.72,0001.85,0001.29,0004.49,0003.62,0003.02,18.8,25.0,14.8,10.1,0675.0,31.1
2021-07-18T23:19:00Z,00000200,00000000,0021.31,0015.01,0008.68,0002.36,0002.26,0001.36,0004.32,0004.14,0002.77,18.8,25.0,14.9,10.2,0675.0,31.1
2021-07-18T23:20:00Z,00000200,00000000,0021.11,0014.87,0008.64,0002.65,0001.83,0001.15,0004.21,0004.16,0002.99,18.8,25.0,14.9,10.2,0675.0,31.1
2021-07-18T23:21:00Z,00000200,00000000,0021.58,0015.34,0008.61,0002.11,0001.80,0001.32,0004.49,0003.61,0002.94,18.8,25.0,14.8,10.2,0675.0,31.0
2021-07-18T23:22:00Z,00000200,00000000,0021.63,0014.87,0008.49,0002.08,0001.72,0001.68,0004.27,0004.01,0003.05,18.8,25.0,14.9,10.2,0675.1,31.1
2021-07-18T23:23:00Z,00000200,00000000,0022.64,0014.78,0008.42,0002.53,0001.74,0001.91,0004.29,0003.70,0002.65,18.8,25.0,14.8,10.2,0675.1,31.1
2021-07-18T23:24:00Z,00000200,00000000,0022.28,0015.12,0008.80,0002.03,0001.60,0001.54,0004.63,0004.60,0003.14,18.8,25.0,14.9,10.2,0675.1,31.1
2021-07-18T23:25:00Z,00000200,00000000,0021.95,0015.19,0008.55,0002.12,0001.77,0001.54,0004.43,0003.62,0003.13,18.8,24.9,14.7,10.1,0675.1,31.1
2021-07-18T23:26:00Z,00000200,00000000,0023.42,0016.36,0009.30,0002.52,0002.11,0001.64,0004.66,0004.24,0003.06,18.8,24.9,14.9,10.2,0675.1,31.0
2021-07-18T23:27:00Z,00000200,00000000,0023.05,0016.45,0009.60,0002.18,0001.69,0001.80,0004.13,0003.82,0003.20,18.8,24.9,14.9,10.2,0675.2,31.0
2021-07-18T23:28:00Z,00000200,00000000,0022.96,0016.23,0009.49,0002.77,0001.73,0001.45,0004.15,0003.99,0002.60,18.8,24.9,14.8,10.2,0675.2,31.1
2021-07-18T23:29:00Z,00000200,00000000,0022.66,0016.47,0009.44,0002.19,0001.95,0001.32,0004.87,0004.00,0003.19,18.8,24.9,14.8,10.1,0675.2,31.0
2021-07-18T23:30:00Z,00000200,00000000,0023.11,0016.27,0010.01,0002.42,0002.37,0001.82,0004.26,0003.97,0002.74,18.8,24.9,14.8,10.1,0675.2,31.1
2021-07-18T23:31:00Z,00000200,00000000,0023.59,0017.02,0009.65,0002.15,0001.88,0001.47,0004.47,0003.99,0003.36,18.8,24.9,14.9,10.2,0675.2,31.1
2021-07-18T23:32:00Z,00000200,00000000,0022.68,0016.96,0010.58,0002.22,0002.06,0001.41,0004.70,0004.35,0003.01,18.8,24.9,14.8,10.2,0675.2,31.1
2021-07-18T23:33:00Z,00000200,00000000,0022.32,0016.61,0009.45,0002.80,0002.08,0001.49,0004.23,0004.12,0003.38,18.8,24.9,14.8,10.2,0675.2,31.0
2021-07-18T23:34:00Z,00000200,00000000,0023.45,0015.83,0009.10,0002.61,0001.73,0001.43,0004.87,0004.13,0002.83,18.8,24.9,14.9,10.2,0675.2,31.0
2021-07-18T23:35:00Z,00000200,00000000,0021.65,0015.65,0009.00,0002.55,0002.02,0001.48,0003.88,0003.83,0003.25,18.8,25.0,14.7,10.2,0675.2,31.1
2021-07-18T23:36:00Z,00000200,00000000,0021.91,0015.09,0008.80,0002.21,0002.02,0001.38,0004.20,0003.34,0002.66,18.9,25.0,14.7,10.2,0675.1,31.1
2021-07-18T23:37:00Z,00000200,00000000,0022.27,0015.48,0009.05,0001.98,0002.00,0001.39,0004.28,0003.86,0002.70,18.9,25.0,14.6,10.1,0675.2,31.1
2021-07-18T23:38:00Z,00000200,00000000,0021.82,0015.96,0009.24,0002.80,0001.86,0001.68,0004.65,0004.18,0003.01,18.9,25.0,14.7,10.1,0675.2,31.1
2021-07-18T23:39:00Z,00000200,00000000,0022.25,0015.31,0009.20,0002.58,0001.85,0001.66,0003.72,0003.66,0002.91,19.0,25.0,14.6,10.1,0675.2,31.1
2021-07-18T23:40:00Z,00000200,00000000,0023.58,0016.87,0010.18,0002.15,0002.14,0001.69,0004.33,0003.96,0003.08,19.0,25.0,14.6,10.1,0675.2,31.1
2021-07-18T23:41:00Z,00000200,00000000,0023.18,0016.22,0009.98,0002.62,0001.71,0001.61,0004.39,0004.20,0002.90,18.9,25.0,14.5,10.0,0675.3,31.1
2021-07-18T23:42:00Z,00000200,00000000,0023.37,0016.69,0009.91,0002.30,0002.40,0001.68,0004.09,0004.03,0002.92,18.9,25.0,14.6,10.1,0675.2,31.1
2021-07-18T23:43:00Z,00000200,00000000,0024.78,0017.74,0010.12,0002.93,0001.98,0001.38,0004.46,0003.77,0003.04,18.9,25.0,14.5,10.0,0675.3,31.0
2021-07-18T23:44:00Z,00000200,00000000,0024.22,0017.53,0010.64,0002.17,0001.65,0001.63,0004.62,0004.43,0003.17,18.9,25.0,14.5,10.0,0675.3,31.1
2021-07-18T23:45:00Z,00000200,00000000,0024.54,0017.97,0010.42,0002.59,0002.09,0001.73,0004.74,0003.70,0002.97,18.9,25.0,14.5,10.0,0675.3,31.1
2021-07-18T23:46:00Z,00000200,00000000,0023.53,0017.11,0009.90,0001.95,0002.09,0001.39,0004.23,0004.38,0003.37,18.9,25.0,14.6,10.1,0675.3,31.1
2021-07-18T23:47:00Z,00000200,00000000,0023.42,0016.61,0009.64,0002.93,0002.23,0001.32,0004.60,0004.17,0002.86,18.9,25.0,14.5,10.0,0675.3,31.0
2021-07-18T23:48:00Z,00000200,00000000,0022.63,0016.75,0009.76,0002.77,0002.20,0001.52,0004.34,0003.67,0003.05,18.9,25.0,14.5,10.0,0675.3,31.0
2021-07-18T23:49:00Z,00000200,00000000,0021.91,0015.49,0009.22,0001.97,0001.78,0001.62,0004.05,0003.69,0003.02,18.9,25.0,14.6,10.1,0675.3,31.1
2021-07-18T23:50:00Z,00000200,00000000,0021.44,0015.49,0009.24,0002.84,0001.99,0001.84,0004.35,0003.84,0002.55,18.9,25.0,14.6,10.1,0675.3,31.0
2021-07-18T23:51:00Z,00000200,00000000,0022.18,0015.73,0009.00,0002.36,0002.11,0001.73,0004.34,0003.76,0003.12,18.9,25.0,14.6,10.1,0675.4,31.1
2021-07-18T23:52:00Z,00000200,00000000,0021.85,0015.49,0009.26,0002.53,0001.63,0001.68,0004.13,0003.78,0002.84,18.9,25.0,14.5,10.0,0675.3,31.1
2021-07-18T23:53:00Z,00000200,00000000,0020.64,0014.30,0008.35,0002.66,0001.61,0001.35,0004.21,0003.60,0002.62,18.9,25.0,14.6,10.1,0675.3,31.1
2021-07-18T23:54:00Z,00000200,00000000,0022.53,0015.29,0009.04,0002.65,0001.80,0001.40,0003.97,0003.90,0003.14,18.9,25.0,14.6,10.0,0675.3,31.1
2021-07-18T23:55:00Z,00000200,00000000,0021.51,0014.64,0008.17,0002.05,0001.52,0001.13,0003.94,0003.78,0002.28,18.9,25.0,14.6,10.0,0675.3,31.0
2021-07-18T23:56:00Z,00000200,00000000,0021.43,0014.93,0008.92,0002.01,0001.89,0001.39,0004.11,0003.98,0002.98,18.9,25.0,14.5,10.0,0675.3,31.1
2021-07-18T23:57:00Z,00000200,40000000,,,,,,,0001.47,0000.90,0001.02,18.9,25.0,14.9,10.3,0675.3,31.0
2021-07-18T23:58:00Z,00000200,60000000,,,,,,,0000.15,0000.28,0000.01,18.8,25.1,14.6,09.9,0674.4,31.0
2021-07-18T23:59:00Z,00000200,20000000,,,,,,,-000.42,-000.50,-000.19,18.7,25.2,14.6,09.8,0674.3,31.0
